Time,TemperatureF,DewpointF,PressureIn,WindDirection,WindDirectionDegrees,WindSpeedMPH,WindSpeedGustMPH,Humidity,HourlyPrecipIn,Conditions,Clouds,dailyrainin,SoftwareType,DateUTC
2013-07-04 00:02:00,55.0,52.0,-100.00,North,4,5.0,-999.0,89,0.00,,,-99.99,,2013-07-04 07:02:00,
2013-07-04 00:12:00,55.0,52.0,-100.00,North,4,5.0,-999.0,89,0.00,,,-99.99,,2013-07-04 07:12:00,
2013-07-04 00:21:00,55.0,52.0,-100.00,North,4,5.0,-999.0,89,0.00,,,-99.99,,2013-07-04 07:21:00,
2013-07-04 00:30:00,55.0,52.0,-100.00,North,3,5.0,-999.0,90,0.00,,,-99.99,,2013-07-04 07:30:00,
2013-07-04 01:02:00,55.0,52.0,-100.00,North,3,5.0,-999.0,90,0.00,,,-99.99,,2013-07-04 08:02:00,
2013-07-04 01:11:00,55.0,52.0,-100.00,North,3,5.0,-999.0,90,0.00,,,-99.99,,2013-07-04 08:11:00,
2013-07-04 01:21:00,55.0,52.0,-100.00,North,3,5.0,-999.0,90,0.00,,,-99.99,,2013-07-04 08:21:00,
2013-07-04 01:30:00,54.0,52.0,-100.00,North,6,7.0,-999.0,90,0.00,,,-99.99,,2013-07-04 08:30:00,
2013-07-04 01:53:00,54.0,52.0,-100.00,North,6,7.0,-999.0,90,0.00,,,-99.99,,2013-07-04 08:53:00,
2013-07-04 02:02:00,54.0,52.0,-100.00,North,6,7.0,-999.0,90,0.00,,,-99.99,,2013-07-04 09:02:00,
2013-07-04 02:11:00,54.0,52.0,-100.00,North,6,7.0,-999.0,90,0.00,,,-99.99,,2013-07-04 09:11:00,
2013-07-04 02:22:00,54.0,52.0,-100.00,North,6,7.0,-999.0,90,0.00,,,-99.99,,2013-07-04 09:22:00,
2013-07-04 02:30:00,54.0,51.0,-100.00,North,3,6.0,-999.0,90,0.00,,,-99.99,,2013-07-04 09:30:00,
2013-07-04 02:52:00,54.0,51.0,-100.00,North,3,6.0,-999.0,90,0.00,,,-99.99,,2013-07-04 09:52:00,
2013-07-04 03:01:00,54.0,51.0,-100.00,North,3,6.0,-999.0,90,0.00,,,-99.99,,2013-07-04 10:01:00,
2013-07-04 03:11:00,54.0,51.0,-100.00,North,3,6.0,-999.0,90,0.00,,,-99.99,,2013-07-04 10:11:00,
2013-07-04 03:22:00,54.0,51.0,-100.00,North,3,6.0,-999.0,90,0.00,,,-99.99,,2013-07-04 10:22:00,
2013-07-04 03:30:00,54.0,51.0,-100.00,North,351,3.0,-999.0,89,0.00,,,-99.99,,2013-07-04 10:30:00,
2013-07-04 03:53:00,54.0,51.0,-100.00,North,351,3.0,-999.0,89,0.00,,,-99.99,,2013-07-04 10:53:00,
2013-07-04 04:02:00,54.0,51.0,-100.00,North,351,3.0,-999.0,89,0.00,,,-99.99,,2013-07-04 11:02:00,
2013-07-04 04:11:00,54.0,51.0,-100.00,North,351,3.0,-999.0,89,0.00,,,-99.99,,2013-07-04 11:11:00,
2013-07-04 04:22:00,54.0,51.0,-100.00,North,351,3.0,-999.0,89,0.00,,,-99.99,,2013-07-04 11:22:00,
2013-07-04 04:30:00,53.0,50.0,-100.00,North,358,4.0,-999.0,90,0.00,,,-99.99,,2013-07-04 11:30:00,
2013-07-04 04:53:00,53.0,50.0,-100.00,North,358,4.0,-999.0,90,0.00,,,-99.99,,2013-07-04 11:53:00,
2013-07-04 05:01:00,53.0,50.0,-100.00,North,358,4.0,-999.0,90,0.00,,,-99.99,,2013-07-04 12:01:00,
2013-07-04 05:11:00,53.0,50.0,-100.00,North,358,4.0,-999.0,90,0.00,,,-99.99,,2013-07-04 12:11:00,
2013-07-04 05:22:00,53.0,50.0,-100.00,North,358,4.0,-999.0,90,0.00,,,-99.99,,2013-07-04 12:22:00,
2013-07-04 05:30:00,53.0,50.0,-100.00,North,4,6.0,-999.0,89,0.00,,,-99.99,,2013-07-04 12:30:00,
2013-07-04 06:12:00,53.0,50.0,-100.00,North,4,6.0,-999.0,89,0.00,,,-99.99,,2013-07-04 13:12:00,
2013-07-04 06:22:00,53.0,50.0,-100.00,North,4,6.0,-999.0,89,0.00,,,-99.99,,2013-07-04 13:22:00,
2013-07-04 07:02:00,54.0,50.0,-100.00,North,358,4.0,-999.0,87,0.00,,,-99.99,,2013-07-04 14:02:00,
2013-07-04 07:11:00,54.0,50.0,-100.00,North,358,4.0,-999.0,87,0.00,,,-99.99,,2013-07-04 14:11:00,
2013-07-04 07:30:00,55.0,51.0,-100.00,North,353,4.0,-999.0,84,0.00,,,-99.99,,2013-07-04 14:30:00,
2013-07-04 08:02:00,55.0,51.0,-100.00,North,353,4.0,-999.0,84,0.00,,,-99.99,,2013-07-04 15:02:00,
2013-07-04 08:11:00,55.0,51.0,-100.00,North,353,4.0,-999.0,84,0.00,,,-99.99,,2013-07-04 15:11:00,
2013-07-04 08:23:00,55.0,51.0,-100.00,North,353,4.0,-999.0,84,0.00,,,-99.99,,2013-07-04 15:23:00,
2013-07-04 08:30:00,56.0,51.0,-100.00,North,7,7.0,-999.0,82,0.00,,,-99.99,,2013-07-04 15:30:00,
2013-07-04 08:52:00,56.0,51.0,-100.00,North,7,7.0,-999.0,82,0.00,,,-99.99,,2013-07-04 15:52:00,
2013-07-04 09:02:00,56.0,51.0,-100.00,North,7,7.0,-999.0,82,0.00,,,-99.99,,2013-07-04 16:02:00,
2013-07-04 09:11:00,56.0,51.0,-100.00,North,7,7.0,-999.0,82,0.00,,,-99.99,,2013-07-04 16:11:00,
2013-07-04 09:22:00,56.0,51.0,-100.00,North,7,7.0,-999.0,82,0.00,,,-99.99,,2013-07-04 16:22:00,
2013-07-04 09:52:00,57.0,50.0,-100.00,NNE,12,10.0,-999.0,79,0.00,,,-99.99,,2013-07-04 16:52:00,
2013-07-04 10:01:00,57.0,50.0,-100.00,NNE,12,10.0,-999.0,79,0.00,,,-99.99,,2013-07-04 17:01:00,
2013-07-04 10:11:00,57.0,50.0,-100.00,NNE,12,10.0,-999.0,79,0.00,,,-99.99,,2013-07-04 17:11:00,
2013-07-04 10:22:00,57.0,50.0,-100.00,NNE,12,10.0,-999.0,79,0.00,,,-99.99,,2013-07-04 17:22:00,
2013-07-04 10:30:00,58.0,51.0,-100.00,North,6,7.0,-999.0,78,0.00,,,-99.99,,2013-07-04 17:30:00,
2013-07-04 10:53:00,58.0,51.0,-100.00,North,6,7.0,-999.0,78,0.00,,,-99.99,,2013-07-04 17:53:00,
2013-07-04 11:01:00,58.0,51.0,-100.00,North,6,7.0,-999.0,78,0.00,,,-99.99,,2013-07-04 18:01:00,
2013-07-04 11:11:00,58.0,51.0,-100.00,North,6,7.0,-999.0,78,0.00,,,-99.99,,2013-07-04 18:11:00,
2013-07-04 11:22:00,58.0,51.0,-100.00,North,6,7.0,-999.0,78,0.00,,,-99.99,,2013-07-04 18:22:00,
2013-07-04 12:01:00,58.0,52.0,-100.00,North,5,8.0,-999.0,78,0.00,,,-99.99,,2013-07-04 19:01:00,
2013-07-04 17:01:00,59.0,53.0,-100.00,North,7,7.0,-999.0,81,0.00,,,-99.99,,2013-07-05 00:01:00,
2013-07-04 17:11:00,59.0,53.0,-100.00,North,7,7.0,-999.0,81,0.00,,,-99.99,,2013-07-05 00:11:00,
2013-07-04 17:30:00,59.0,53.0,-100.00,North,8,8.0,-999.0,80,0.00,,,-99.99,,2013-07-05 00:30:00,
2013-07-04 17:52:00,59.0,53.0,-100.00,North,8,8.0,-999.0,80,0.00,,,-99.99,,2013-07-05 00:52:00,
2013-07-04 18:01:00,59.0,53.0,-100.00,North,8,8.0,-999.0,80,0.00,,,-99.99,,2013-07-05 01:01:00,
2013-07-04 18:11:00,59.0,53.0,-100.00,North,8,8.0,-999.0,80,0.00,,,-99.99,,2013-07-05 01:11:00,
2013-07-04 18:21:00,59.0,53.0,-100.00,North,8,8.0,-999.0,80,0.00,,,-99.99,,2013-07-05 01:21:00,
2013-07-04 18:30:00,58.0,52.0,-100.00,North,8,8.0,-999.0,82,0.00,,,-99.99,,2013-07-05 01:30:00,
2013-07-04 18:52:00,58.0,52.0,-100.00,North,8,8.0,-999.0,82,0.00,,,-99.99,,2013-07-05 01:52:00,
2013-07-04 19:02:00,58.0,52.0,-100.00,North,8,8.0,-999.0,82,0.00,,,-99.99,,2013-07-05 02:02:00,
2013-07-04 19:11:00,58.0,52.0,-100.00,North,8,8.0,-999.0,82,0.00,,,-99.99,,2013-07-05 02:11:00,
2013-07-04 19:21:00,58.0,52.0,-100.00,North,8,8.0,-999.0,82,0.00,,,-99.99,,2013-07-05 02:21:00,
2013-07-04 19:30:00,57.0,53.0,-100.00,North,6,7.0,-999.0,86,0.00,,,-99.99,,2013-07-05 02:30:00,
2013-07-04 19:52:00,57.0,53.0,-100.00,North,6,7.0,-999.0,86,0.00,,,-99.99,,2013-07-05 02:52:00,
2013-07-04 20:02:00,57.0,53.0,-100.00,North,6,7.0,-999.0,86,0.00,,,-99.99,,2013-07-05 03:02:00,
2013-07-04 20:11:00,57.0,53.0,-100.00,North,6,7.0,-999.0,86,0.00,,,-99.99,,2013-07-05 03:11:00,
2013-07-04 20:21:00,57.0,53.0,-100.00,North,6,7.0,-999.0,86,0.00,,,-99.99,,2013-07-05 03:21:00,
2013-07-04 20:30:00,56.0,53.0,-100.00,North,7,6.0,-999.0,88,0.00,,,-99.99,,2013-07-05 03:30:00,
2013-07-04 20:52:00,56.0,53.0,-100.00,North,7,6.0,-999.0,88,0.00,,,-99.99,,2013-07-05 03:52:00,
2013-07-04 21:01:00,56.0,53.0,-100.00,North,7,6.0,-999.0,88,0.00,,,-99.99,,2013-07-05 04:01:00,
2013-07-04 21:11:00,56.0,53.0,-100.00,North,7,6.0,-999.0,88,0.00,,,-99.99,,2013-07-05 04:11:00,
2013-07-04 21:21:00,56.0,53.0,-100.00,North,7,6.0,-999.0,88,0.00,,,-99.99,,2013-07-05 04:21:00,
2013-07-04 21:30:00,56.0,52.0,-100.00,North,3,6.0,-999.0,87,0.00,,,-99.99,,2013-07-05 04:30:00,
2013-07-04 21:53:00,56.0,52.0,-100.00,North,3,6.0,-999.0,87,0.00,,,-99.99,,2013-07-05 04:53:00,
2013-07-04 22:01:00,56.0,52.0,-100.00,North,3,6.0,-999.0,87,0.00,,,-99.99,,2013-07-05 05:01:00,
2013-07-04 22:12:00,56.0,52.0,-100.00,North,3,6.0,-999.0,87,0.00,,,-99.99,,2013-07-05 05:12:00,
2013-07-04 22:21:00,56.0,52.0,-100.00,North,3,6.0,-999.0,87,0.00,,,-99.99,,2013-07-05 05:21:00,
2013-07-04 22:30:00,55.0,52.0,-100.00,North,6,9.0,-999.0,89,0.00,,,-99.99,,2013-07-05 05:30:00,
2013-07-04 22:52:00,55.0,52.0,-100.00,North,6,9.0,-999.0,89,0.00,,,-99.99,,2013-07-05 05:52:00,
2013-07-04 23:02:00,55.0,52.0,-100.00,North,6,9.0,-999.0,89,0.00,,,-99.99,,2013-07-05 06:02:00,
2013-07-04 23:13:00,55.0,52.0,-100.00,North,6,9.0,-999.0,89,0.00,,,-99.99,,2013-07-05 06:13:00,
2013-07-04 23:23:00,55.0,52.0,-100.00,North,6,9.0,-999.0,89,0.00,,,-99.99,,2013-07-05 06:23:00,
2013-07-04 23:30:00,54.0,51.0,-100.00,North,7,7.0,-999.0,90,0.00,,,-99.99,,2013-07-05 06:30:00,
2013-07-04 23:53:00,54.0,51.0,-100.00,North,7,7.0,-999.0,90,0.00,,,-99.99,,2013-07-05 06:53:00,